TimeCDT,TemperatureF,Dew PointF,Humidity,Sea Level PressureIn,VisibilityMPH,Wind Direction,Wind SpeedMPH,Gust SpeedMPH,PrecipitationIn,Events,Conditions,WindDirDegrees,DateUTC
12:15 AM,39.2,37.4,93,30.24,10.0,Calm,Calm,-,N/A,,Clear,0,2012-10-06 05:15:00
12:35 AM,39.2,37.4,93,30.24,9.0,Calm,Calm,-,N/A,,Clear,0,2012-10-06 05:35:00
12:55 AM,39.2,37.4,93,30.24,9.0,Calm,Calm,-,N/A,,Clear,0,2012-10-06 05:55:00
1:15 AM,39.2,37.4,93,30.25,9.0,Calm,Calm,-,N/A,,Clear,0,2012-10-06 06:15:00
1:55 AM,39.2,37.4,93,30.24,10.0,Calm,Calm,-,N/A,,Clear,0,2012-10-06 06:55:00
2:35 AM,37.4,37.4,100,30.25,10.0,Calm,Calm,-,N/A,,Clear,0,2012-10-06 07:35:00
2:55 AM,37.4,35.6,93,30.25,10.0,Calm,Calm,-,N/A,,Clear,0,2012-10-06 07:55:00
3:15 AM,37.4,35.6,93,30.25,10.0,Calm,Calm,-,N/A,,Clear,0,2012-10-06 08:15:00
3:35 AM,37.4,35.6,93,30.25,10.0,Calm,Calm,-,N/A,,Clear,0,2012-10-06 08:35:00
3:55 AM,37.4,35.6,93,30.24,10.0,Calm,Calm,-,N/A,,Partly Cloudy,0,2012-10-06 08:55:00
4:15 AM,37.4,35.6,93,30.25,10.0,Calm,Calm,-,N/A,,Partly Cloudy,0,2012-10-06 09:15:00
4:35 AM,37.4,35.6,93,30.25,10.0,Calm,Calm,-,N/A,,Partly Cloudy,0,2012-10-06 09:35:00
4:55 AM,37.4,35.6,93,30.24,10.0,Calm,Calm,-,N/A,,Partly Cloudy,0,2012-10-06 09:55:00
5:15 AM,35.6,33.8,93,30.26,10.0,Calm,Calm,-,N/A,,Partly Cloudy,0,2012-10-06 10:15:00
5:35 AM,35.6,35.6,100,30.26,10.0,Calm,Calm,-,N/A,,Partly Cloudy,0,2012-10-06 10:35:00
5:55 AM,35.6,33.8,93,30.27,10.0,Calm,Calm,-,N/A,,Clear,0,2012-10-06 10:55:00
6:15 AM,35.6,33.8,93,30.27,10.0,Calm,Calm,-,N/A,,Clear,0,2012-10-06 11:15:00
6:35 AM,35.6,33.8,93,30.27,10.0,Calm,Calm,-,N/A,,Clear,0,2012-10-06 11:35:00
6:55 AM,35.6,35.6,100,30.28,10.0,Calm,Calm,-,N/A,,Mostly Cloudy,0,2012-10-06 11:55:00
7:55 AM,39.2,32.0,75,30.26,10.0,Calm,Calm,-,N/A,,Mostly Cloudy,0,2012-10-06 12:55:00
8:52 AM,39.2,35.6,87,30.25,10.0,NNE,5.8,-,N/A,,Mostly Cloudy,30,2012-10-06 13:52:00
9:50 AM,41.0,35.6,81,30.27,10.0,Calm,Calm,-,N/A,,Mostly Cloudy,0,2012-10-06 14:50:00
10:51 AM,41.0,35.6,81,30.31,10.0,NW,5.8,-,N/A,,Overcast,310,2012-10-06 15:51:00
11:48 AM,42.8,35.6,76,30.29,10.0,North,5.8,-,N/A,,Overcast,350,2012-10-06 16:48:00
12:47 PM,44.6,41.0,87,30.27,10.0,North,5.8,-,N/A,,Overcast,350,2012-10-06 17:47:00
1:45 PM,46.4,37.4,71,30.27,10.0,NNW,6.9,-,N/A,,Overcast,340,2012-10-06 18:45:00
2:50 PM,46.4,35.6,66,30.25,10.0,NW,5.8,-,N/A,,Overcast,320,2012-10-06 19:50:00
3:50 PM,46.4,37.4,71,30.23,10.0,North,6.9,-,N/A,,Overcast,350,2012-10-06 20:50:00
4:50 PM,44.6,33.8,66,30.23,10.0,North,4.6,-,N/A,,Overcast,350,2012-10-06 21:50:00
6:50 PM,39.2,35.6,87,30.25,10.0,NNE,5.8,-,N/A,,Overcast,20,2012-10-06 23:50:00
7:45 PM,39.2,35.6,87,30.27,10.0,Calm,Calm,-,N/A,,Overcast,0,2012-10-07 00:45:00
8:45 PM,39.2,37.4,93,30.28,10.0,Calm,Calm,-,N/A,,Overcast,0,2012-10-07 01:45:00
9:15 PM,39.2,35.6,87,30.28,10.0,Calm,Calm,-,N/A,,Overcast,0,2012-10-07 02:15:00
9:35 PM,39.2,37.4,93,30.28,10.0,Calm,Calm,-,N/A,,Overcast,0,2012-10-07 02:35:00
9:55 PM,39.2,35.6,87,30.28,10.0,NW,3.5,-,N/A,,Overcast,310,2012-10-07 02:55:00
10:15 PM,39.2,35.6,87,30.29,10.0,Calm,Calm,-,N/A,,Overcast,0,2012-10-07 03:15:00
10:35 PM,39.2,35.6,87,30.28,10.0,Calm,Calm,-,N/A,,Overcast,0,2012-10-07 03:35:00
11:15 PM,39.2,35.6,87,30.28,10.0,Calm,Calm,-,N/A,,Overcast,0,2012-10-07 04:15:00
11:35 PM,39.2,35.6,87,30.27,10.0,Calm,Calm,-,N/A,,Overcast,0,2012-10-07 04:35:00
11:55 PM,39.2,35.6,87,30.28,10.0,Calm,Calm,-,N/A,,Overcast,0,2012-10-07 04:55:00